Weather History for KBUY - September, 2013

Change the Weather History Date:

Monday, September 30, 2013

  Actual Average Record
Temperature  
Mean Temperature 60 °F -  
Max Temperature 75 °F 75 °F 90 °F (1954)
Min Temperature 48 °F 52 °F 39 °F (2003)
Degree Days  
Heating Degree Days 4    
Growing Degree Days 10 (Base 50)    
Moisture  
Dew Point 51 °F    
Average Humidity 75    
Maximum Humidity 93    
Minimum Humidity 43    
Precipitation  
Precipitation 0.01 in - - ()
Sea Level Pressure  
Sea Level Pressure 30.06 in    
Wind  
Wind Speed 0 mph (SSE)    
Max Wind Speed 5 mph    
Max Gust Speed -    
Visibility 10 miles    
Events      
Averages and records for this station are not official NWS values.
T = Trace of Precipitation, MM = Missing Value Source: NWS Daily Summary

Daily Weather History Graph

Daily Weather History Graph

Search for Another Location

Airport or City:

Trip Planner

Search our weather history database for the weather conditions in past years. The results will help you decide how hot, cold, wet, or windy it might be!

Date:

Astronomy

Sep. 30, 2013 Rise Set
Actual Time 7:12 AM EDT 7:02 PM EDT
Civil Twilight 6:46 AM EDT 7:28 PM EDT
Nautical Twilight 6:17 AM EDT 7:57 PM EDT
Astronomical Twilight 5:47 AM EDT 8:27 PM EDT
Moon 2:54 AM EDT (9/30) 4:26 PM EDT (9/30)
Length of Visible Light 12h 41m
Length of Day
11h 50m
Waning Crescent, 19% of the Moon is Illuminated
Sep 30
Waning Crescent
Oct 4
New
Oct 11
First Quarter
Oct 18
Full
Oct 26
Last Quarter

Hourly Weather History & Observations

Time (EDT) Temp. Dew Point Humidity Pressure Visibility Wind Dir Wind Speed Gust Speed Precip Events Conditions
12:54 AM 51.1 °F 48.0 °F 89% 30.06 in 10.0 mi Calm Calm - N/A   Clear
1:54 AM 51.1 °F 48.0 °F 89% 30.07 in 10.0 mi Calm Calm - N/A   Clear
2:54 AM 50.0 °F 46.9 °F 89% 30.07 in 10.0 mi Calm Calm - N/A   Clear
3:54 AM 50.0 °F 48.0 °F 93% 30.06 in 10.0 mi Calm Calm - N/A   Clear
4:54 AM 48.9 °F 46.0 °F 90% 30.06 in 10.0 mi Calm Calm - 0.01 in   Clear
5:54 AM 48.0 °F 45.0 °F 89% 30.06 in 10.0 mi Calm Calm - N/A   Clear
6:54 AM 48.9 °F 46.0 °F 90% 30.09 in 10.0 mi Calm Calm - N/A   Clear
7:54 AM 50.0 °F 46.9 °F 89% 30.10 in 10.0 mi Calm Calm - N/A   Clear
8:54 AM 55.9 °F 51.1 °F 84% 30.11 in 10.0 mi Calm Calm - N/A   Clear
9:54 AM 60.1 °F 54.0 °F 80% 30.11 in 10.0 mi Calm Calm - N/A   Clear
10:54 AM 64.9 °F 55.9 °F 73% 30.10 in 10.0 mi Calm Calm - N/A   Clear
11:54 AM 70.0 °F 54.0 °F 57% 30.09 in 10.0 mi Calm Calm - N/A   Clear
12:54 PM 72.0 °F 53.1 °F 51% 30.07 in 10.0 mi East 3.5 mph - N/A   Mostly Cloudy
1:54 PM 73.0 °F 52.0 °F 48% 30.05 in 10.0 mi SW 4.6 mph - N/A   Mostly Cloudy
2:54 PM 73.9 °F 50.0 °F 43% 30.02 in 10.0 mi Calm Calm - N/A   Partly Cloudy
3:54 PM 73.0 °F 51.1 °F 46% 30.01 in 10.0 mi Calm Calm - N/A   Overcast
4:54 PM 72.0 °F 52.0 °F 49% 30.01 in 10.0 mi Calm Calm - N/A   Partly Cloudy
5:54 PM 73.0 °F 51.1 °F 46% 30.02 in 10.0 mi Calm Calm - N/A   Clear
6:54 PM 66.9 °F 55.9 °F 68% 30.03 in 10.0 mi Calm Calm - N/A   Clear
7:54 PM 62.1 °F 55.9 °F 80% 30.04 in 10.0 mi Calm Calm - N/A   Clear
8:54 PM 61.0 °F 55.0 °F 81% 30.06 in 10.0 mi Calm Calm - N/A   Clear
9:54 PM 57.9 °F 54.0 °F 87% 30.07 in 10.0 mi Calm Calm - N/A   Clear
10:54 PM 55.9 °F 53.1 °F 90% 30.07 in 10.0 mi Calm Calm - N/A   Clear
11:54 PM 55.9 °F 52.0 °F 87% 30.07 in 7.0 mi Calm Calm - N/A   Clear